This is the latest recevied weather packets stored in our database for station/object EA1AV-7. If no packets are shown the sender has not sent any weather packets the latest 1 day(s).
| Time | Temp. | Humidity | Pressure | Rain* | Wind** | Luminosity | Snow |
|---|---|---|---|---|---|---|---|
| 1778086885 | 26.67° C | 42% | 917.3 hPa | - | - | - | - |
| 1778086585 | 26.67° C | 43% | 917.2 hPa | - | - | - | - |
| 1778086285 | 26.67° C | 43% | 917.2 hPa | - | - | - | - |
| 1778085985 | 26.67° C | 43% | 917.3 hPa | - | - | - | - |
| 1778085685 | 26.67° C | 43% | 917.2 hPa | - | - | - | - |
| 1778085385 | 26.11° C | 43% | 917.3 hPa | - | - | - | - |
| 1778085085 | 26.67° C | 43% | 917.3 hPa | - | - | - | - |
| 1778084785 | 26.67° C | 44% | 917.3 hPa | - | - | - | - |
| 1778084485 | 26.67° C | 44% | 917.2 hPa | - | - | - | - |
| 1778084185 | 26.11° C | 44% | 917.3 hPa | - | - | - | - |
| 1778083885 | 26.11° C | 45% | 917.3 hPa | - | - | - | - |
| 1778083585 | 26.11° C | 44% | 917.3 hPa | - | - | - | - |
| 1778082384 | 25.56° C | 45% | 917.5 hPa | - | - | - | - |
| 1778081784 | 26.11° C | 45% | 917.6 hPa | - | - | - | - |
| 1778081484 | 26.11° C | 45% | 917.7 hPa | - | - | - | - |
| 1778081184 | 26.67° C | 45% | 917.6 hPa | - | - | - | - |
| 1778080884 | 26.67° C | 46% | 917.7 hPa | - | - | - | - |
| 1778080584 | 26.67° C | 46% | 917.7 hPa | - | - | - | - |
| 1778080284 | 26.67° C | 47% | 917.8 hPa | - | - | - | - |
| 1778079984 | 26.67° C | 48% | 917.8 hPa | - | - | - | - |
| 1778079684 | 25.56° C | 49% | 917.9 hPa | - | - | - | - |
| 1778079384 | 23.89° C | 52% | 917.9 hPa | - | - | - | - |
* Rain since midnight (hover to see other rain measurements)
** Current wind speed in m/s (hover to see current wind gust speed)